[Date Prev][Date Next][Thread Prev][Thread Next] - [Date Index][Thread Index][Author Index]
2 Line ISS Keps 2-26
- Subject: [sarex] 2 Line ISS Keps 2-26
- From: "Dave Larsen PhD" <doc@xxxxxxxxxxx>
- Date: Sat, 25 Feb 2006 18:25:29 -0800
ISS
1 25544U 98067A 06057.02296567 .00012186 00000-0 88492-4 0 4229
2 25544 051.6430 039.2672 0008290 300.3599 129.1493 15.73829329415646
----
Via the sarex mailing list at AMSAT.ORG courtesy of AMSAT-NA.
To unsubscribe, send "unsubscribe sarex" to Majordomo@amsat.org
AMSAT Home